Weather History for 94368 - November, 2012

Change the Weather History Date:

Wednesday, November 14, 2012

  Actual Average Record
Temperature  
Mean Temperature 76 °F -  
Max Temperature 81 °F - - ()
Min Temperature 72 °F - - ()
Cooling Degree Days 12    
Growing Degree Days 26 (Base 50)    
Moisture  
Dew Point 58 °F    
Average Humidity 52    
Maximum Humidity 65    
Minimum Humidity 35    
Precipitation  
Precipitation 0.00 in - - ()
Sea Level Pressure  
Sea Level Pressure 30.02 in    
Wind  
Wind Speed 18 mph ()    
Max Wind Speed 24 mph    
Max Gust Speed -    
T = Trace of Precipitation, MM = Missing Value Source: Averaged Metar Reports

Daily Weather History Graph

Daily Weather History Graph

Search for Another Location

Airport or City:

Trip Planner

Search our weather history database for the weather conditions in past years. The results will help you decide how hot, cold, wet, or windy it might be!

Date:

Astronomy

Nov. 14, 2012 Rise Set
Actual Time 5:16 AM AEST 6:20 PM AEST
Civil Twilight 4:53 AM AEST 6:44 PM AEST
Nautical Twilight 4:25 AM AEST 7:12 PM AEST
Astronomical Twilight 3:56 AM AEST 7:40 PM AEST
Moon 5:13 AM AEST (11/14) 6:43 PM AEST (11/14)
Length of Visible Light 13h 51m
Length of Day
13h 04m
New Moon, 0% of the Moon is Illuminated
Nov 14
New Moon
Nov 21
First Quarter
Nov 29
Full
Dec 7
Last Quarter
Dec 13
New

Hourly Weather History & Observations

Time (AEST) Temp. Heat Index Dew Point Humidity Pressure Visibility Wind Dir Wind Speed Gust Speed Precip Events Conditions
12:00 AM 74 °F - 60 °F 52% 30.04 in - ESE 20.7 mph - -  
12:00 AM 73.4 °F - 59.0 °F 61% 30.04 in - ESE 20.7 mph - N/A   Unknown
12:30 AM 73.4 °F - 59.0 °F 61% 30.04 in - ESE 18.4 mph - N/A   Unknown
1:00 AM 73.4 °F - 59.0 °F 61% 30.01 in - ESE 18.4 mph - N/A   Unknown
1:30 AM 73.4 °F - 59.0 °F 61% 30.01 in - ESE 20.7 mph - N/A   Unknown
2:00 AM 73.4 °F - 60.8 °F 65% 30.01 in - ESE 20.7 mph - N/A   Unknown
2:30 AM 73.4 °F - 60.8 °F 65% 29.98 in - ESE 17.3 mph - N/A   Unknown
3:00 AM 73 °F - 60 °F 55% 29.99 in - ESE 18.4 mph - -  
3:00 AM 73.4 °F - 60.8 °F 65% 29.98 in - ESE 18.4 mph - N/A   Unknown
3:30 AM 73.4 °F - 60.8 °F 65% 29.98 in - SE 18.4 mph - N/A   Unknown
4:00 AM 73.4 °F - 60.8 °F 65% 30.01 in - SE 18.4 mph - N/A   Unknown
4:30 AM 73.4 °F - 60.8 °F 65% 30.01 in - SE 18.4 mph - N/A   Unknown
5:00 AM 73.4 °F - 60.8 °F 65% 30.01 in - SE 18.4 mph - N/A   Unknown
5:30 AM 73.4 °F - 59.0 °F 61% 30.01 in - ESE 18.4 mph - N/A   Unknown
6:00 AM 75 °F - 58 °F 46% 30.02 in - SE 17.3 mph - -  
6:00 AM 75.2 °F - 59.0 °F 57% 30.01 in - SE 17.3 mph - N/A   Unknown
6:30 AM 75.2 °F - 57.2 °F 53% 30.04 in - SE 19.6 mph - N/A   Unknown
7:00 AM 75.2 °F - 55.4 °F 50% 30.04 in - ESE 18.4 mph - N/A   Unknown
7:30 AM 77.0 °F - 55.4 °F 47% 30.04 in - SE 16.1 mph - N/A   Unknown
8:00 AM 78.8 °F - 57.2 °F 47% 30.04 in - ESE 16.1 mph - N/A   Unknown
8:30 AM 80.6 °F 81.1 °F 59.0 °F 48% 30.06 in - ESE 16.1 mph - N/A   Unknown
9:00 AM 80 °F - 58 °F 37% 30.06 in - ESE 17.3 mph - -  
9:00 AM 80.6 °F 81.1 °F 59.0 °F 48% 30.06 in - ESE 17.3 mph - N/A   Unknown
9:30 AM 78.8 °F - 57.2 °F 47% 30.06 in - ESE 18.4 mph - N/A   Unknown
10:00 AM 80.6 °F 81.1 °F 59.0 °F 48% 30.06 in - ESE 17.3 mph - N/A   Unknown
10:30 AM 80.6 °F 80.5 °F 55.4 °F 42% 30.06 in - ESE 17.3 mph - N/A   Unknown
11:00 AM 80.6 °F 80.5 °F 55.4 °F 42% 30.06 in - ESE 17.3 mph - N/A   Unknown
11:30 AM 80.6 °F 80.8 °F 57.2 °F 45% 30.04 in - ESE 16.1 mph - N/A   Unknown
12:00 PM 81 °F - 59 °F 36% 30.04 in - ESE 17.3 mph - -  
12:00 PM 80.6 °F 81.1 °F 59.0 °F 48% 30.04 in - ESE 17.3 mph - N/A   Unknown
12:30 PM 80.6 °F 81.1 °F 59.0 °F 48% 30.04 in - ESE 17.3 mph - N/A   Unknown
1:00 PM 80.6 °F 81.5 °F 60.8 °F 51% 30.01 in - ESE 19.6 mph - N/A   Unknown
1:30 PM 78.8 °F - 57.2 °F 47% 30.01 in - ESE 19.6 mph - N/A   Unknown
2:00 PM 78.8 °F - 57.2 °F 47% 30.01 in - ESE 19.6 mph - N/A   Unknown
2:30 PM 78.8 °F - 55.4 °F 44% 29.98 in - East 20.7 mph - N/A   Unknown
3:00 PM 77 °F - 57 °F 40% 29.98 in - East 21.9 mph - -  
3:00 PM 77.0 °F - 57.2 °F 50% 29.98 in - East 21.9 mph - N/A   Unknown
3:30 PM 77.0 °F - 55.4 °F 47% 29.98 in - East 21.9 mph - N/A   Unknown
4:00 PM 77.0 °F - 57.2 °F 50% 29.98 in - ESE 20.7 mph - N/A   Unknown
4:30 PM 77.0 °F - 57.2 °F 50% 29.98 in - ESE 21.9 mph - N/A   Unknown
5:00 PM 75.2 °F - 55.4 °F 50% 29.98 in - ESE 24.2 mph - N/A   Unknown
5:30 PM 75.2 °F - 55.4 °F 50% 29.98 in - ESE 23.0 mph - N/A   Unknown
6:00 PM 75 °F - 53 °F 35% 29.99 in - ESE 21.9 mph - -  
6:00 PM 75.2 °F - 53.6 °F 47% 29.98 in - ESE 21.9 mph - N/A   Unknown
6:30 PM 75.2 °F - 55.4 °F 50% 30.01 in - ESE 19.6 mph - N/A   Unknown
7:00 PM 75.2 °F - 55.4 °F 50% 30.01 in - ESE 21.9 mph - N/A   Unknown
7:30 PM 75.2 °F - 55.4 °F 50% 30.01 in - ESE 20.7 mph - N/A   Unknown
8:00 PM 75.2 °F - 55.4 °F 50% 30.01 in - ESE 18.4 mph - N/A   Unknown
8:30 PM 75.2 °F - 57.2 °F 53% 30.04 in - ESE 19.6 mph - N/A   Unknown
9:00 PM 74 °F - 57 °F 46% 30.04 in - ESE 20.7 mph - -  
9:00 PM 75.2 °F - 57.2 °F 53% 30.04 in - ESE 20.7 mph - N/A   Unknown
9:30 PM 75.2 °F - 59.0 °F 57% 30.04 in - ESE 19.6 mph - N/A   Unknown
10:00 PM 75.2 °F - 60.8 °F 61% 30.04 in - ESE 18.4 mph - N/A   Unknown
10:30 PM 73.4 °F - 57.2 °F 57% 30.04 in - ESE 18.4 mph - N/A   Unknown
11:00 PM 75.2 °F - 59.0 °F 57% 30.04 in - ESE 17.3 mph - N/A   Unknown
11:30 PM 75.2 °F - 59.0 °F 57% 30.04 in - ESE 21.9 mph - N/A   Unknown